Location: Audinghen
(50.8518°N, 1.6129°E)
Time: 23:54:16
(UTC+00:00)

Meteor 1-28 Rocket - Pass Details

Date: 07 August 2020
Orbit: 502 x 524 km, 97.3° (Epoch: 23 September)

Event Time Altitude Azimuth Distance (km) Brightness Sun altitude
Exits shadow 02:36:16 11° 163° (SSE) 1,718 5.5 -14.6°
Maximum altitude 02:39:58 85° 78° (ENE) 532 3.2 -14.2°
Drops below altitude 10° 02:43:49 10° 348° (NNW) 1,775 6.4 -13.8°
Sets 02:45:56 0° 348° (NNW) 2,671 7.4 -13.6°
